Waarnemingen

Advertentie
Mijn weer
Bournemouth Airport, Groot Brittannië (3862): temperatuur & dauwpunt: 16.09.2020 14:00:00 - 22.09.2020 14:00:00 (BST)Bournemouth Airport, Groot Brittannië (3862): temperatuur -20cm & temperatuur -100cm: 16.09.2020 14:00:00 - 22.09.2020 14:00:00 (BST)Bournemouth Airport, Groot Brittannië (3862): windsnelheid: 16.09.2020 14:00:00 - 22.09.2020 14:00:00 (BST)Bournemouth Airport, Groot Brittannië (3862): windrichting: 16.09.2020 14:00:00 - 22.09.2020 14:00:00 (BST)Bournemouth Airport, Groot Brittannië (3862): luchtdruk: 16.09.2020 14:00:00 - 22.09.2020 14:00:00 (BST)Bournemouth Airport, Groot Brittannië (3862): zicht: 16.09.2020 14:00:00 - 22.09.2020 14:00:00 (BST)Bournemouth Airport, Groot Brittannië (3862): Zonneschijnduur: 16.09.2020 14:00:00 - 22.09.2020 14:00:00 (BST)Bournemouth Airport, Groot Brittannië (3862): neerslag: 16.09.2020 14:00:00 - 22.09.2020 14:00:00 (BST)
Datum & Tijd tt [°C] td [°C] tt -20cm [°C] tt -100cm [°C] ff [km/u] ff [kn] dd ppp [hPa] vv [km] sd [min] rr [mm]
22.09.2020 14:00:00 18,9 14,9 - - 21 11 ZW 1009,4 27 18 0,0
22.09.2020 13:00:00 19,9 15,8 - - 16 9 WZW 1010,0 10 24 0,0
22.09.2020 12:00:00 18,4 14,9 - - 16 9 ZW 1010,7 19 24 0,0
22.09.2020 11:00:00 17,7 14,5 - - 18 10 WZW 1011,3 8 54 0,0
22.09.2020 10:00:00 17,0 14,5 17,2 16,0 16 9 ZW 1011,6 5 36 0,0
22.09.2020 09:00:00 12,5 12,1 - - 0 0 N 1012,1 5 0 0,0
22.09.2020 08:00:00 9,5 9,1 - - 0 0 N 1012,3 6 0 0,0
22.09.2020 07:00:00 8,3 7,7 - - 0 0 N 1012,4 0,3 0 0,0
22.09.2020 06:00:00 8,3 7,8 - - 0 0 N 1012,5 3,0 0 0,0
22.09.2020 05:00:00 9,0 8,4 - - 0 0 N 1012,6 7 0 0,0
22.09.2020 04:00:00 9,3 8,5 - - 4 2 NO 1013,2 4,6 0 0,0
22.09.2020 03:00:00 10,0 9,2 - - 0 0 N 1013,7 14 0 0,0
22.09.2020 02:00:00 10,6 9,5 - - 0 0 N 1014,5 13 0 0,0
22.09.2020 01:00:00 11,3 10,3 - - 5 3 N 1015,0 10 - 0,0
22.09.2020 00:00:00 12,0 10,7 - - 0 0 N 1015,3 22 0 0,0
21.09.2020 23:00:00 12,3 11,0 - - 2 1 NNO 1015,8 10 0 0,0
21.09.2020 22:00:00 12,8 11,2 - - 4 2 - 1016,0 10 0 0,0
21.09.2020 21:00:00 14,0 11,6 - - 0 0 N 1016,1 24 0 0,0
21.09.2020 20:00:00 15,5 12,7 - - 0 0 N 1016,1 10 0 0,0
21.09.2020 19:00:00 18,7 12,8 - - 8 4 ZZO 1015,9 10 42 0,0
21.09.2020 18:00:00 19,2 13,6 - - 9 5 Z 1016,0 27 60 0,0
21.09.2020 17:00:00 19,9 13,5 - - 13 7 Z 1016,3 10 60 0,0
21.09.2020 16:00:00 21,5 12,7 - - 15 8 Z 1016,6 10 60 0,0
21.09.2020 15:00:00 22,4 12,2 - - 9 5 Z 1016,9 10 60 0,0
21.09.2020 14:00:00 23,2 9,0 - - 5 3 - 1017,2 10 60 0,0
21.09.2020 13:00:00 21,4 12,0 - - 8 4 ONO 1017,7 45 60 0,0
21.09.2020 12:00:00 19,6 11,8 - - 8 4 - 1018,2 10 60 0,0
21.09.2020 11:00:00 16,6 13,4 - - 8 4 N 1018,3 10 60 0,0
21.09.2020 10:00:00 13,6 12,9 - - 11 6 N 1018,4 7 0 0,0
21.09.2020 09:00:00 12,6 12,2 - - 9 5 NO 1018,2 5 0 0,0
21.09.2020 08:00:00 11,6 11,0 - - 8 4 NNO 1018,1 6 0 0,0
21.09.2020 07:00:00 11,7 11,0 - - 9 5 NNO 1018,0 14 0 0,0
21.09.2020 06:00:00 11,6 10,8 - - 11 6 N 1018,1 16 0 0,0
21.09.2020 05:00:00 11,9 10,9 - - 5 3 N 1018,1 20 0 0,0
21.09.2020 04:00:00 12,4 11,3 - - 5 3 N 1018,1 20 0 0,0
21.09.2020 03:00:00 12,9 11,5 - - 8 4 N 1018,5 24 0 0,0
21.09.2020 02:00:00 13,5 11,7 - - 8 4 NNO 1018,7 29 0 0,0
21.09.2020 01:00:00 14,8 12,3 - - 11 6 NNO 1018,4 29 - 0,0
21.09.2020 00:00:00 15,0 12,5 - - 4 2 ONO 1018,4 30 0 0,0
20.09.2020 23:00:00 16,6 12,8 - - 5 3 ONO 1018,4 35 0 0,0
20.09.2020 22:00:00 16,4 11,7 - - 9 5 N 1018,6 35 0 0,0
20.09.2020 21:00:00 17,7 11,9 - - 8 4 NNO 1018,4 10 0 0,0
20.09.2020 20:00:00 19,2 12,6 - - 11 6 NNO 1018,0 40 0 0,0
20.09.2020 19:00:00 21,0 13,0 - - 15 8 NNO 1017,3 40 30 0,0
20.09.2020 18:00:00 22,9 13,6 - - 15 8 NO 1016,9 10 60 0,0
20.09.2020 17:00:00 23,4 13,0 - - 21 11 NO 1016,8 10 60 0,0
20.09.2020 16:00:00 23,9 12,3 - - 21 11 NO 1016,9 10 60 0,0
20.09.2020 15:00:00 23,7 11,7 - - 18 10 NO 1017,3 10 54 0,0
20.09.2020 14:00:00 22,7 12,5 - - 21 11 NO 1017,5 10 36 0,0
20.09.2020 13:00:00 22,4 12,7 - - 22 12 NO 1017,5 10 54 0,0
20.09.2020 12:00:00 20,9 12,5 - - 18 10 NO 1017,8 45 24 0,0
20.09.2020 11:00:00 17,7 12,3 - - 21 11 NO 1018,1 10 0 0,0
20.09.2020 10:00:00 16,4 12,4 - - 22 12 NNO 1017,9 10 0 0,0
20.09.2020 09:00:00 15,4 12,1 - - 24 13 NNO 1017,5 10 0 0,0
20.09.2020 08:00:00 14,4 11,9 - - 18 10 NNO 1017,2 10 0 0,0
20.09.2020 07:00:00 14,5 11,8 - - 16 9 NNO 1016,7 10 0 0,0
20.09.2020 06:00:00 14,7 11,8 - - 21 11 NNO 1016,7 10 0 0,0
20.09.2020 05:00:00 14,5 11,5 - - 16 9 NNO 1016,7 30 0 0,0
20.09.2020 04:00:00 14,7 11,4 - - 22 12 NNO 1016,6 30 0 0,0
20.09.2020 03:00:00 15,4 11,3 - - 21 11 NNO 1016,6 35 0 0,0
20.09.2020 02:00:00 16,4 10,7 - - 21 11 NNO 1016,5 26 0 0,0
20.09.2020 01:00:00 17,4 10,0 - - 15 8 NNO 1016,5 40 - 0,0
20.09.2020 00:00:00 17,9 9,2 - - 16 9 NNO 1016,4 45 0 0,0
19.09.2020 23:00:00 18,6 9,4 - - 18 10 NO 1016,2 50 0 0,0
19.09.2020 22:00:00 19,2 9,6 - - 15 8 NO 1015,9 10 0 0,0
19.09.2020 21:00:00 19,9 9,5 - - 15 8 NO 1015,5 10 0 0,0
19.09.2020 20:00:00 20,2 10,1 - - 11 6 ONO 1015,1 10 0 0,0
19.09.2020 19:00:00 20,9 11,7 - - 11 6 ONO 1014,8 45 0 0,0
19.09.2020 18:00:00 22,3 12,5 - - 9 5 ONO 1014,3 10 0 0,0
19.09.2020 17:00:00 22,8 11,7 - - 16 9 ONO 1014,0 45 6 0,0
19.09.2020 16:00:00 22,7 11,6 - - 28 15 ONO 1013,9 10 0 0,0
19.09.2020 15:00:00 23,1 12,3 - - 22 12 ONO 1014,1 10 12 0,0
19.09.2020 14:00:00 22,2 13,2 - - 22 12 NO 1014,4 35 18 0,0
19.09.2020 13:00:00 20,8 12,5 - - 28 15 NO 1014,7 10 18 0,0
19.09.2020 12:00:00 19,8 12,2 - - 24 13 NO 1014,8 40 18 0,0
19.09.2020 11:00:00 18,2 12,0 - - 28 15 NNO 1015,1 10 42 0,0
19.09.2020 10:00:00 16,2 11,7 17,2 16,0 21 11 NNO 1015,9 10 54 0,0
19.09.2020 09:00:00 15,5 12,0 - - 21 11 NNO 1016,0 10 48 0,0
19.09.2020 08:00:00 13,6 11,1 - - 18 10 NNO 1015,9 10 0 0,0
19.09.2020 07:00:00 13,2 10,6 - - 18 10 NNO 1015,7 10 0 0,0
19.09.2020 06:00:00 13,2 10,6 - - 16 9 NNO 1015,8 35 0 0,0
19.09.2020 05:00:00 13,3 10,6 - - 18 10 NNO 1015,9 35 0 0,0
19.09.2020 04:00:00 13,1 10,5 - - 13 7 NNO 1016,2 35 0 0,0
19.09.2020 03:00:00 12,9 10,4 - - 13 7 NNO 1016,8 30 0 0,0
19.09.2020 02:00:00 13,4 10,5 - - 16 9 NNO 1017,5 30 0 0,0
19.09.2020 01:00:00 14,1 10,8 - - 13 7 NO 1018,0 30 - 0,0
19.09.2020 00:00:00 14,7 11,0 - - 13 7 NO 1018,5 30 0 0,0
18.09.2020 23:00:00 14,8 10,4 - - 15 8 NO 1018,7 10 0 0,0
18.09.2020 22:00:00 14,3 8,4 - - 9 5 ONO 1019,4 45 0 0,0
18.09.2020 21:00:00 16,1 7,9 - - 16 9 NO 1019,0 10 0 0,0
18.09.2020 20:00:00 16,5 7,9 - - 15 8 NO 1018,5 50 0 0,0
18.09.2020 19:00:00 18,0 8,5 - - 21 11 ONO 1018,0 10 0 0,0
18.09.2020 18:00:00 19,6 8,9 - - 22 12 NO 1017,8 10 6 0,0
18.09.2020 17:00:00 20,1 8,5 - - 26 14 ONO 1018,2 60 24 0,0
18.09.2020 16:00:00 20,6 10,1 - - 18 10 NO 1018,7 55 30 0,0
18.09.2020 15:00:00 22,1 10,5 - - 26 14 ONO 1019,4 10 60 0,0
18.09.2020 14:00:00 21,3 10,8 - - 28 15 ONO 1019,8 10 60 0,0
18.09.2020 13:00:00 20,4 10,3 - - 29 16 ONO 1020,5 50 60 0,0
18.09.2020 12:00:00 19,6 9,2 - - 29 16 ONO 1021,0 50 60 0,0
18.09.2020 11:00:00 18,5 10,4 - - 24 13 ONO 1021,7 10 60 0,0
18.09.2020 10:00:00 16,4 11,0 17,4 16,2 28 15 ONO 1022,0 10 60 0,0
18.09.2020 09:00:00 13,7 9,8 - - 28 15 NO 1021,8 10 54 0,0
18.09.2020 08:00:00 11,7 8,8 - - 24 13 NO 1021,4 10 0 0,0
18.09.2020 07:00:00 10,4 8,3 - - 22 12 NO 1021,5 10 0 0,0
18.09.2020 06:00:00 10,0 8,1 - - 15 8 NO 1022,0 40 0 0,0
18.09.2020 05:00:00 10,6 8,5 - - 16 9 NO 1022,5 40 0 0,0
18.09.2020 04:00:00 10,7 8,5 - - 16 9 NO 1023,1 40 0 0,0
18.09.2020 03:00:00 10,8 8,6 - - 18 10 NO 1023,6 40 0 0,0
18.09.2020 02:00:00 11,0 8,6 - - 9 5 NNO 1024,4 40 0 0,0
18.09.2020 01:00:00 11,5 8,9 - - 13 7 NO 1024,4 40 - 0,0
18.09.2020 00:00:00 11,7 8,6 - - 11 6 NNO 1024,8 40 0 0,0
17.09.2020 23:00:00 13,0 8,9 - - 18 10 ONO 1025,2 40 0 0,0
17.09.2020 22:00:00 13,7 6,7 - - 16 9 ONO 1025,7 10 0 0,0
17.09.2020 21:00:00 14,4 4,1 - - 13 7 ONO 1025,3 60 0 0,0
17.09.2020 20:00:00 16,4 8,4 - - 15 8 ONO 1024,7 45 0 0,0
17.09.2020 19:00:00 18,3 10,3 - - 11 6 ONO 1024,3 45 48 0,0
17.09.2020 18:00:00 20,9 9,8 - - 18 10 ONO 1024,5 10 60 0,0
17.09.2020 17:00:00 22,0 10,7 - - 21 11 ONO 1024,6 10 60 0,0
17.09.2020 16:00:00 22,1 11,0 - - 26 14 ONO 1025,1 10 60 0,0
17.09.2020 15:00:00 22,0 10,4 - - 24 13 ONO 1025,9 10 60 0,0
17.09.2020 14:00:00 21,4 10,1 - - 22 12 ONO 1026,5 10 60 0,0
17.09.2020 13:00:00 20,6 10,2 - - 22 12 ONO 1027,1 10 60 0,0
17.09.2020 12:00:00 19,7 11,4 - - 22 12 ONO 1027,3 10 60 0,0
17.09.2020 11:00:00 18,3 11,2 - - 24 13 ONO 1027,7 10 60 0,0
17.09.2020 10:00:00 16,6 11,4 17,7 16,0 21 11 ONO 1028,1 10 60 0,0
17.09.2020 09:00:00 14,9 11,5 - - 21 11 ONO 1027,9 25 42 0,0
17.09.2020 08:00:00 13,4 10,6 - - 21 11 NO 1027,7 23 0 0,0
17.09.2020 07:00:00 13,2 10,5 - - 21 11 NO 1027,5 10 0 0,0
17.09.2020 06:00:00 13,5 11,2 - - 22 12 NO 1027,2 10 0 0,0
17.09.2020 05:00:00 14,0 11,4 - - 16 9 NO 1027,1 29 0 0,0
17.09.2020 04:00:00 15,0 12,6 - - 22 12 NO 1027,0 27 0 0,0
17.09.2020 03:00:00 15,5 13,2 - - 15 8 NO 1027,4 27 0 0,0
17.09.2020 02:00:00 15,7 13,8 - - 13 7 NO 1027,4 19 0 0,0
17.09.2020 01:00:00 15,8 13,8 - - 11 6 NNO 1027,4 20 - 0,0
17.09.2020 00:00:00 16,3 14,0 - - 15 8 NNO 1027,2 21 0 0,0
16.09.2020 23:00:00 17,1 14,1 - - 16 9 NO 1026,8 24 0 0,0
16.09.2020 22:00:00 18,5 14,7 - - 18 10 NO 1026,2 27 0 0,0
16.09.2020 21:00:00 19,5 15,0 - - 16 9 NO 1025,4 30 0 0,0
16.09.2020 20:00:00 19,6 14,6 - - 8 4 NO 1024,4 10 0 0,0
16.09.2020 19:00:00 22,8 13,9 - - 5 3 NO 1023,8 10 30 0,0
16.09.2020 18:00:00 24,7 13,2 - - 13 7 NO 1023,3 45 60 0,0
16.09.2020 17:00:00 25,9 14,4 - - 15 8 NO 1022,9 10 60 0,0
16.09.2020 16:00:00 26,4 14,2 - - 15 8 ONO 1023,0 10 60 0,0
16.09.2020 15:00:00 26,4 13,8 - - 18 10 ONO 1023,0 45 60 0,0
16.09.2020 14:00:00 25,8 13,9 - - 15 8 ONO 1023,1 10 30 0,0

tt = temperatuur
td = dauwpunt
tt -20cm = temperatuur -20cm
tt -100cm = temperatuur -100cm
ff = windsnelheid
dd = windrichting
ppp = luchtdruk
vv = zicht
sd = Zonneschijnduur
rr = neerslag

Weerstations in de omgeving